Regional Weather Roundup
Issued by NWS

Home | Current Version | Previous Version | Text Only | Print | Product List | Glossary Off
Versions: 1 2 3 4 5 6 7 8 9 10 11 12 13 14 15 16 17 18 19 20 21 22 23 24 25 26 27 28 29 30 31 32 33 34 35 36 37 38 39 40 41 42 43 44 45 46 47 48 49 50

000
ASUS43 KDTX 231601
RWRMI
MICHIGAN HOURLY REGIONAL WEATHER ROUNDUP
NATIONAL WEATHER SERVICE DETROIT/PONTIAC MI
1200 PM EDT SAT AUG 23 2014

NOTE: "FAIR" INDICATES FEW OR NO CLOUDS BELOW 12,000 FEET WITH NO
SIGNIFICANT WEATHER AND/OR OBSTRUCTION TO VISIBILITY.

MIZ047>049-052>055-059>063-066>070-074>076-081>083-231700-
SOUTHEAST LOWER MICHIGAN

CITY           SKY/WX    TMP DP  RH WIND       PRES   REMARKS
ADRIAN         MOSUNNY   76  65  68 VRB6      30.07S
ALMA           CLOUDY    70  65  82 NE9       30.10S
ANN ARBOR      SUNNY     79  64  60 VRB5      30.06R
BAD AXE        PTSUNNY   69  69 100 NE5       30.12R
CARO           CLOUDY    68  65  90 N5        30.10S
DETROIT CITY   CLOUDY    71  65  81 NE6       30.09R HAZE
DETROIT        PTSUNNY   75  63  66 N5        30.08R FOG
FLINT          SUNNY     77  63  61 NE7       30.08R
GROSSE ILE     CLOUDY    73  66  78 NE7       30.06R HAZE
HILLSDALE      PTSUNNY   79  70  75 E3        30.07S
HOWELL         SUNNY     76  62  61 E7        30.07F

CITY           SKY/WX    TMP DP  RH WIND       PRES   REMARKS
JACKSON        SUNNY     79  64  60 NE6       30.07S
LAMBERTVILLE   PTSUNNY   75  68  78 SE7       30.07R
LANSING        SUNNY     77  63  61 E7        30.07F
LAPEER         CLOUDY    66  63  88 NE3       30.11R
MASON          SUNNY     76  64  66 E3        30.07S
MONROE         CLOUDY    73  68  83 E6        30.06R HAZE
MT. CLEMENS    CLOUDY    69  65  86 VRB5      30.08R
PONTIAC        PTSUNNY   75  65  70 E7        30.07R
PORT HOPE        N/A     65  63  93 NE6       30.09R
PORT HURON     CLOUDY    70  68  94 N5        30.09R FOG
TRI CITIES     PTSUNNY   74  64  71 NE14      30.10S
TROY           CLOUDY    70  64  81 E7        30.10R
SAGINAW HB     CLOUDY    72  70  94 NE10      30.09S
$$
MIZ043>046-050>051-056>058-064>065-071>073-077>080-231700-
SOUTHWEST LOWER MICHIGAN

CITY           SKY/WX    TMP DP  RH WIND       PRES   REMARKS
BATTLE CREEK   PTSUNNY   79  69  71 NE7       30.06S
BENTON HARBOR  CLOUDY    77  72  84 SE9       30.02S
BIG RAPIDS     SUNNY     76  66  71 E7        30.07F
COLDWATER      MOSUNNY   81  70  70 SE7       30.05S
FREMONT        FAIR      77  62  58 E8        30.05F
HOLLAND        PTSUNNY   79  71  76 E12       30.04S
GRAND RAPIDS   PTSUNNY   78  67  68 E10       30.07R
IONIA          FAIR      74  64  69 E9        30.07S
KALAMAZOO      PTSUNNY   80  70  71 E5        30.05R
LUDINGTON      MOSUNNY   78  65  66 SE9       30.05S
MARSHALL       CLOUDY    75  66  73 NE5       30.06S
MOUNT PLEASANT MOSUNNY   74  65  73 E6        30.09S
MUSKEGON       PTSUNNY   80  66  62 E12G18    30.04S
SOUTH HAVEN    CLOUDY    79  74  85 SE9       30.02F
$$
MIZ016>042-231700-
NORTHERN LOWER MICHIGAN

CITY           SKY/WX    TMP DP  RH WIND       PRES   REMARKS
ALPENA         CLOUDY    68  65  90 NE5       30.13R
BEAVER ISLAND  CLOUDY    74  66  76 E8        30.11S
BELLAIRE       SUNNY     80  62  53 SE7       30.07F
CADILLAC       SUNNY     77  64  63 E8        30.08F
CHARLEVOIX     MOSUNNY   77  65  66 E10       30.12F
FRANKFORT      SUNNY     81  62  52 E7        30.05S
GAYLORD        MOSUNNY   71  61  70 SE8       30.13S
GRAYLING       SUNNY     74  65  72 E6        30.12F
HARBOR SPRINGS MOSUNNY   76  64  67 E10       30.10F
HOUGHTON LAKE  SUNNY     75  62  64 E7G17     30.11S
MANISTEE       SUNNY     79  63  57 SE7       30.06S
OSCODA         CLOUDY    65  64  97 N6        30.12R
PELLSTON       CLOUDY    73  64  73 E10       30.12R
ROGERS CITY    CLOUDY    65  65 100 E6        30.15R FOG
TRAVERSE CITY  MOSUNNY   80  63  55 CALM      30.05F
$$
MIZ007>008-015-231700-
EASTERN UPPER MICHIGAN

CITY           SKY/WX    TMP DP  RH WIND       PRES   REMARKS
KINROSS        CLOUDY    70  66  88 E13       30.14R
MACKINAC ISLAN FOG       64  64 100 E5        30.13R VSB 1/2
NEWBERRY       PTSUNNY   75  65  70 E8        30.11S
S. S. MARIE    CLOUDY    70  64  81 SE6       30.14R
$$
MIZ004>006-011>014-085-231700-
CENTRAL UPPER MICHIGAN

CITY           SKY/WX    TMP DP  RH WIND       PRES   REMARKS
MANISTIQUE     LGT RAIN  69  64  85 E6        30.10R
ESCANABA       PTSUNNY   66  63  88 E8        30.08S
MENOMINEE      PTSUNNY   72  64  78 SE12      30.05S
SAWYER-GWINN   CLOUDY    68  66  94 S7        30.10R FOG
$$
MIZ001>003-009>011-084-231700-
WESTERN UPPER MICHIGAN

CITY           SKY/WX    TMP DP  RH WIND       PRES   REMARKS
IRON MOUNTAIN  CLOUDY    70  67  90 SE6       30.06S FOG
HOUGHTON       CLOUDY    68  62  81 E9        30.07S
COPPER HARBOR    N/A     62  55  77 CALM      30.08S
$$

ABBREVIATIONS USED IN REMARKS
   TC - TEMPERATURE IN CELSIUS
  WCI - WIND CHILL INDEX
   HX - HEAT INDEX
  VSB - VISIBILITY




USA.gov is the U.S. government's official web portal to all federal, state and local government web resources and services.